Vertical_Velocity
-2 -2 -2 -2 -2 -2 -2 -2 -2 -3 -3 -2 -2 -2 -2 -1 -1 -2 -2 -3 -3 -2 -2 -1 -1 -1 -1 -2 -2 -2 -2 -2 -2 -2 -2 -2 -2 -2 -1 -2 -2 -2 -3 -3 -3 -3 -3 -3 -2 -2 -2 -1 -1 -1 -1 -1 -0 -1 -1 -2 -2 -1 -0 0 0 -0 -0 -0 0
-1 -1 -1 -2 -2 -2 -2 -2 -2 -2 -3 -3 -3 -2 -2 -2 -1 -1 -2 -2 -2 -2 -2 -2 -1 -1 -1 -2 -2 -2 -2 -2 -2 -2 -2 -2 -2 -1 -1 -1 -2 -2 -2 -3 -3 -3 -3 -3 -2 -2 -2 -2 -1 -1 -1 -1 -1 -1 -1 -2 -2 -1 -0 0 0 0 -0 -0 -0
-1 -1 -1 -1 -2 -2 -2 -1 -1 -1 -1 -2 -2 -2 -2 -2 -1 -1 -1 -2 -2 -2 -2 -2 -1 -1 -0 -1 -1 -1 -1 -1 -1 -1 -1 -1 -1 -1 -1 -1 -1 -2 -2 -2 -3 -3 -4 -4 -3 -2 -2 -2 -1 -1 -2 -2 -1 -1 -1 -1 -1 -1 -0 1 1 1 1 1 1
-1 -1 -1 -1 -1 -1 -2 -1 -1 -1 -1 -1 -1 -2 -2 -2 -1 -1 -1 -1 -2 -2 -2 -2 -1 -1 -1 -0 -0 -1 -1 -2 -1 -1 -1 -1 -1 -1 -1 -1 -1 -1 -2 -2 -3 -4 -4 -4 -3 -2 -2 -1 -2 -2 -2 -2 -2 -1 -0 -0 -0 0 1 1 1 1 1 1 1
-1 -1 -0 -0 -1 -1 -2 -2 -2 -2 -2 -1 -1 -1 -2 -2 -1 -1 -1 -2 -2 -2 -2 -2 -1 -1 -1 -0 -0 -0 -1 -1 -2 -1 -1 -1 -1 -1 -1 -1 -1 -1 -2 -2 -3 -4 -4 -4 -4 -3 -2 -2 -2 -2 -2 -2 -1 -0 1 2 2 2 2 2 1 1 1 1 0
-1 -1 -1 -1 -1 -1 -2 -2 -2 -2 -2 -2 -1 -1 -2 -2 -1 -1 -1 -1 -1 -1 -2 -2 -2 -1 -1 -0 -0 -0 -0 -1 -1 -1 -1 -1 -1 -1 -1 -2 -2 -2 -2 -2 -3 -4 -4 -4 -4 -4 -3 -3 -2 -3 -3 -2 -0 2 4 4 4 3 2 -0 -0 -0 0 0 -0
-1 -1 -1 -2 -1 -1 -2 -2 -2 -2 -2 -2 -2 -1 -1 -1 -1 -1 -1 -1 -1 -2 -2 -1 -1 -1 -1 -1 -0 -0 -0 -0 -1 -1 -1 -1 -1 -1 -1 -1 -2 -2 -2 -3 -4 -5 -5 -4 -4 -4 -4 -3 -3 -3 -3 -1 1 4 6 6 4 1 -0 -2 -1 -1 -0 -0 -0
-1 -2 -2 -2 -2 -2 -2 -2 -2 -2 -2 -2 -2 -2 -2 -1 -1 -1 -1 -1 -1 -2 -2 -1 -1 -1 -1 -1 -1 -1 -0 -0 -1 -1 -2 -1 -1 -1 -1 -1 -2 -2 -3 -3 -4 -5 -5 -4 -4 -5 -5 -4 -3 -2 -2 -0 3 5 6 6 3 0 -2 -2 -2 -1 -0 0 -0
-2 -2 -2 -2 -2 -1 -1 -1 -2 -2 -2 -2 -2 -2 -2 -2 -2 -1 -1 -1 -1 -1 -2 -2 -1 -1 -2 -2 -2 -1 -1 -0 -0 -1 -1 -1 -1 -0 -0 -0 -1 -2 -3 -4 -5 -6 -5 -4 -5 -5 -5 -4 -3 -2 -0 2 4 5 5 4 2 -0 -1 -2 -1 -1 0 0 -0
-2 -2 -2 -1 -1 -1 -1 -1 -1 -1 -2 -2 -2 -2 -2 -2 -2 -2 -1 -1 -1 -2 -2 -2 -2 -1 -1 -1 -1 -1 -1 -1 -0 -0 -1 -1 -0 0 0 0 0 -1 -2 -4 -6 -6 -6 -5 -5 -6 -6 -5 -3 -2 0 2 4 4 4 3 1 0 -1 -2 -1 -0 0 0 0
-2 -2 -2 -2 -2 -1 -1 -1 -1 -1 -1 -1 -1 -1 -1 -1 -2 -2 -1 -1 -1 -1 -2 -2 -2 -1 -1 -1 -0 -0 -0 -0 -0 -0 -0 -0 0 1 1 1 1 0 -1 -3 -6 -6 -6 -5 -6 -6 -6 -6 -4 -2 -0 2 3 3 3 2 1 0 -1 -1 -1 -0 0 0 -0
-3 -3 -3 -3 -3 -2 -2 -1 -1 -1 -1 -1 -1 -1 -1 -1 -1 -1 -1 -1 -0 -0 -0 -1 -1 -1 -1 -1 -0 0 1 1 1 1 0 0 1 1 2 3 2 2 -0 -3 -5 -6 -6 -6 -6 -6 -6 -5 -4 -2 -1 0 2 2 3 2 1 0 -0 -1 -0 -0 0 -0 -0
-4 -4 -4 -4 -3 -3 -2 -2 -1 -1 -1 -1 -1 -1 -0 -0 -0 -0 -0 -0 0 0 0 -0 -0 -1 -1 -2 -1 -1 0 1 2 1 1 0 1 2 3 4 4 3 1 -2 -5 -6 -6 -6 -6 -6 -5 -4 -3 -3 -2 -1 0 2 2 2 1 1 0 -0 -0 -0 -0 -0 -1
-4 -4 -4 -4 -3 -3 -2 -2 -2 -1 -1 -1 -1 -1 -0 -0 -1 -1 -0 -0 -0 -0 -0 -0 -1 -1 -1 -2 -3 -2 -1 -0 1 1 1 1 1 2 3 5 5 5 3 -1 -4 -5 -5 -5 -6 -6 -6 -4 -3 -3 -2 -2 -1 1 2 3 2 2 1 0 -0 -0 -1 -1 -1
-3 -3 -3 -3 -2 -2 -2 -2 -2 -1 -1 -1 -1 -1 -1 -1 -1 -1 -2 -2 -1 -1 -1 -1 -2 -2 -2 -2 -3 -3 -3 -2 -0 0 1 1 1 2 4 5 6 6 4 0 -3 -4 -4 -3 -5 -6 -6 -4 -3 -3 -2 -2 -1 0 2 3 3 2 1 0 -0 -1 -1 -1 -0
-2 -2 -2 -1 -1 -1 -2 -2 -2 -1 -1 -1 -2 -2 -2 -2 -2 -2 -3 -3 -3 -2 -2 -2 -2 -2 -2 -2 -2 -3 -3 -3 -1 -0 0 1 2 2 4 5 7 7 6 2 -2 -3 -3 -2 -5 -6 -6 -4 -3 -3 -2 -1 -0 0 1 2 2 2 1 1 -0 -1 -1 -1 -0
-1 -1 -1 -1 -1 -1 -1 -1 -2 -2 -2 -2 -2 -2 -2 -2 -3 -3 -3 -3 -3 -2 -2 -2 -2 -1 -1 -2 -2 -2 -2 -2 -2 -1 -0 1 2 3 4 6 7 8 7 4 0 -2 -2 -2 -5 -6 -6 -4 -4 -3 -2 -1 -0 0 1 1 1 2 2 1 0 -0 -1 -0 0
-0 -0 -0 -0 -0 -1 -1 -2 -2 -3 -3 -3 -3 -3 -3 -3 -2 -2 -2 -2 -1 -1 -1 -1 -1 -0 -0 -0 -2 -1 -1 -1 -1 -1 -0 1 1 3 4 5 7 8 8 6 2 -0 -1 -1 -3 -5 -5 -5 -4 -3 -2 -1 -0 0 0 1 1 2 2 2 1 -0 -0 0 1
-1 -1 -1 -1 -1 -2 -2 -3 -3 -4 -4 -3 -3 -3 -3 -2 -2 -1 -1 -1 -1 0 1 0 -0 0 1 1 0 -0 -1 0 -0 -1 -1 0 1 2 3 5 7 8 8 7 3 1 -0 -0 -1 -3 -4 -5 -4 -2 -1 -1 -0 -0 0 1 2 3 3 2 1 1 1 1 2
-2 -2 -2 -2 -3 -3 -4 -4 -4 -4 -3 -3 -3 -2 -2 -2 -1 -1 -0 -0 -0 -0 1 1 1 1 1 1 2 1 0 0 0 -1 -2 -1 -0 1 2 4 6 7 8 7 4 2 1 2 1 -1 -3 -5 -4 -2 -1 -0 -0 0 1 2 2 2 2 1 2 2 2 2 2
-3 -4 -4 -4 -4 -4 -4 -4 -3 -3 -2 -2 -1 -1 -1 -1 -1 -1 -0 -0 -0 0 0 1 2 2 2 1 1 1 -0 -0 -0 -1 -2 -2 -1 -0 1 3 5 7 8 7 5 3 3 3 3 1 -2 -5 -3 -2 -0 0 1 1 1 1 1 1 1 2 3 3 3 3 3
-5 -5 -5 -5 -4 -3 -2 -2 -1 -1 -1 -1 -1 -0 -0 -1 -1 -1 -0 -0 0 0 1 1 2 2 2 1 -0 -1 -2 -1 -1 -1 -2 -2 -1 -0 1 3 5 7 7 7 6 4 4 5 5 3 0 -4 -2 -1 -0 1 2 2 1 1 0 1 2 3 4 4 3 2 2
-6 -5 -4 -3 -2 -1 -0 0 0 0 -0 -0 -1 -1 -1 -1 -1 -0 -0 0 1 1 1 2 2 2 1 -0 -2 -3 -3 -3 -2 -1 -1 -1 -1 -0 1 3 5 7 8 8 6 5 5 6 7 6 2 -2 -1 -1 -0 2 2 2 1 0 0 1 2 4 4 4 3 1 0
-5 -4 -2 -1 -0 0 1 1 1 0 -0 -1 -1 -1 -1 -1 -1 -0 0 1 1 2 2 2 2 2 1 -1 -3 -4 -4 -3 -2 -2 -1 -1 -0 0 2 4 5 7 8 8 6 5 5 7 10 8 4 -0 -1 -1 0 2 2 2 1 0 -0 1 2 4 4 3 1 -1 -0
-2 -1 -0 0 1 1 0 0 0 -0 -1 -1 -2 -2 -2 -1 -0 0 1 1 1 2 2 2 2 1 0 -2 -3 -4 -3 -3 -2 -2 -1 -1 -0 1 2 4 5 7 8 8 7 6 6 8 10 9 5 2 -0 -0 1 2 2 2 1 -0 -1 1 2 4 3 1 -0 -1 2
-0 -0 0 0 0 -0 -1 -1 -1 -1 -1 -2 -2 -2 -1 -1 -0 0 1 1 1 1 2 2 2 1 -0 -2 -3 -3 -3 -2 -2 -2 -1 -0 0 1 3 4 6 7 8 8 7 7 7 9 10 10 8 5 1 0 1 2 2 2 1 -1 -1 -0 1 3 2 1 1 2 4
-0 -0 -0 -0 -1 -1 -1 -1 -2 -2 -2 -2 -2 -1 -1 -1 -0 0 1 1 1 2 2 2 2 1 -1 -2 -2 -2 -2 -2 -2 -1 -1 -0 1 2 3 5 6 7 8 8 8 7 8 8 10 11 10 6 2 -0 -0 1 2 2 0 -1 -2 -1 -0 2 3 3 3 3 3
-1 -1 -1 -2 -2 -2 -2 -2 -2 -2 -2 -2 -1 -1 -1 -1 -0 0 1 2 2 2 2 2 1 0 -1 -2 -2 -2 -2 -2 -2 -1 -0 0 1 3 4 5 6 7 7 8 7 7 7 8 9 12 12 7 4 1 1 2 3 2 0 -2 -4 -4 -1 3 4 4 2 2 2
-2 -2 -2 -3 -2 -2 -2 -3 -3 -3 -2 -2 -1 -1 -1 -1 0 1 2 2 2 1 1 1 1 -0 -1 -2 -1 -1 -1 -1 -1 -1 0 1 2 3 4 5 6 7 7 7 7 6 6 6 6 11 14 9 6 5 3 3 4 3 1 -2 -6 -6 -2 4 4 3 1 1 2
-3 -3 -3 -3 -3 -2 -2 -2 -3 -3 -2 -2 -1 -1 -1 -0 0 1 1 1 1 2 2 2 1 -0 -1 -1 -1 -1 -1 -1 -1 -0 1 2 3 4 4 5 6 7 8 8 7 6 6 5 9 11 11 8 8 7 6 4 5 4 2 -2 -6 -6 -3 3 3 2 2 2 2
-3 -3 -3 -3 -2 -2 -2 -2 -3 -3 -3 -2 -2 -1 -1 -0 -0 0 1 2 2 2 2 2 1 0 -0 -0 -1 -1 -1 -0 0 1 1 2 3 4 4 5 6 8 9 9 8 7 7 9 12 10 7 6 9 9 7 6 5 4 2 -1 -5 -5 -4 0 2 3 4 3 3
-3 -3 -3 -3 -2 -2 -2 -2 -3 -3 -3 -2 -2 -1 -1 -0 1 1 1 2 2 1 -0 -1 -1 -1 -1 -0 -0 -1 -1 -0 1 1 2 2 3 3 4 5 7 8 10 10 9 8 9 13 12 8 4 5 8 9 8 6 5 5 4 -1 -4 -5 -4 -0 4 6 5 4 4
-2 -2 -3 -2 -2 -2 -3 -3 -3 -2 -1 -1 -1 -1 -0 -0 -0 0 0 0 -0 -1 -3 -4 -4 -3 -2 -1 -1 -1 -1 0 1 1 2 2 2 3 4 5 7 9 10 10 8 8 9 13 10 6 4 5 8 9 8 5 5 5 4 -1 -4 -6 -4 1 6 7 6 5 4
-1 -2 -2 -3 -4 -4 -3 -2 -1 -0 0 0 -0 -0 -0 -1 -1 -1 -1 -1 -2 -3 -4 -4 -4 -3 -2 -1 -1 -1 -1 0 1 1 1 1 2 2 3 4 6 8 9 9 6 7 8 9 5 3 3 4 6 7 6 4 6 6 5 -2 -5 -6 -4 1 5 6 6 4 4
-1 -1 -2 -4 -4 -4 -3 -1 0 1 1 1 0 -0 -1 -0 -0 -0 -1 -2 -3 -4 -4 -3 -2 -1 -1 -1 -1 -1 -0 0 0 1 0 0 1 1 2 3 4 5 6 6 5 6 7 4 1 0 1 2 4 5 4 3 7 8 6 -2 -5 -5 -4 0 4 5 5 3 2
-1 -2 -3 -4 -4 -3 -2 1 2 2 1 0 -0 -1 -1 -1 -1 -2 -2 -3 -4 -4 -3 -2 -1 -0 -0 -1 -1 -1 -1 -0 -0 -0 -0 -0 -0 0 1 2 3 4 3 1 4 7 6 -1 -2 -2 -1 0 2 2 2 1 5 8 6 -2 -5 -5 -3 -1 3 4 4 2 2
-2 -3 -4 -4 -4 -2 -0 1 2 1 0 -1 -1 -1 -1 -1 -2 -4 -5 -6 -5 -4 -2 -1 -0 -0 -1 -1 -1 -1 -1 -1 -1 -0 -0 -1 -1 0 1 3 4 3 1 -2 2 5 5 -4 -5 -4 -2 -1 1 2 1 -0 0 4 5 -0 -3 -4 -4 -2 1 2 2 1 1
-3 -4 -4 -4 -2 -1 -0 0 0 0 -0 -1 -1 -1 -1 -2 -4 -6 -7 -7 -5 -3 -1 -0 0 -0 -1 -2 -2 -2 -2 -2 -1 -1 -1 -1 -1 0 2 3 4 4 2 -2 -1 1 2 -4 -6 -5 -3 -1 0 1 1 0 -2 -1 0 -0 -2 -4 -4 -4 -1 0 0 -0 -1
-3 -4 -4 -2 -1 -1 -0 -1 -1 -1 -1 -1 -2 -2 -3 -5 -6 -7 -6 -5 -3 -1 0 1 0 -1 -1 -2 -2 -2 -2 -2 -2 -1 -1 -1 -1 -0 1 2 4 4 2 -0 -4 -4 -3 -4 -7 -6 -4 -2 -1 0 1 1 -1 -2 -3 -4 -4 -5 -5 -5 -3 -1 -1 -1 -2
-3 -3 -3 -2 -1 -0 -1 -2 -2 -2 -1 -1 -2 -3 -3 -4 -6 -6 -5 -4 -2 0 1 2 0 -1 -2 -3 -3 -3 -2 -2 -2 -2 -1 -1 -1 -1 -0 1 1 2 2 0 -3 -6 -7 -7 -8 -7 -4 -2 -1 -1 -0 1 0 -1 -3 -5 -5 -6 -6 -5 -3 -1 -0 -0 -0
-2 -2 -1 -1 -0 -1 -2 -3 -3 -3 -3 -2 -2 -2 -2 -4 -5 -4 -3 -2 -0 1 2 1 -0 -1 -2 -3 -3 -3 -3 -3 -3 -2 -2 -1 -1 -1 -1 -1 -0 1 1 0 -1 -4 -6 -7 -7 -4 -1 1 0 -0 -0 -0 0 -0 -1 -2 -3 -4 -4 -4 -2 -0 1 2 2
Height
5513 5509 5505 5502 5499 5495 5492 5489 5486 5483 5481 5478 5476 5473 5471 5469 5467 5464 5462 5460 5458 5456 5455 5452 5450 5449 5446 5445 5443 5441 5440 5438 5436 5435 5433 5431 5430 5428 5427 5425 5424 5423 5421 5420 5419 5418 5417 5417 5416 5415 5415 5415 5415 5416 5416 5417 5417 5418 5418 5419 5420 5421 5423 5425 5427 5429 5430 5433 5435
5510 5506 5502 5499 5495 5492 5489 5486 5483 5480 5478 5475 5473 5470 5468 5466 5464 5462 5460 5457 5455 5453 5451 5449 5447 5445 5443 5441 5440 5438 5436 5434 5433 5431 5429 5428 5426 5425 5423 5422 5420 5419 5418 5416 5415 5414 5413 5413 5412 5411 5411 5411 5411 5411 5412 5412 5413 5414 5414 5415 5416 5417 5419 5420 5422 5424 5425 5428 5430
5506 5503 5499 5496 5492 5489 5486 5483 5480 5478 5475 5472 5470 5468 5465 5463 5461 5459 5457 5455 5452 5450 5448 5446 5444 5442 5440 5438 5436 5434 5432 5431 5429 5427 5426 5424 5423 5421 5420 5418 5416 5415 5414 5413 5411 5410 5409 5409 5408 5408 5407 5407 5407 5407 5407 5408 5409 5410 5410 5411 5412 5413 5415 5416 5417 5419 5421 5423 5425
5503 5500 5496 5493 5490 5486 5483 5480 5478 5475 5473 5470 5467 5465 5463 5460 5458 5456 5454 5451 5449 5447 5445 5443 5441 5439 5437 5435 5433 5431 5429 5427 5425 5424 5422 5420 5419 5417 5416 5414 5413 5411 5410 5409 5407 5406 5405 5405 5404 5404 5403 5403 5402 5402 5403 5403 5405 5405 5406 5407 5408 5409 5410 5411 5412 5414 5416 5418 5420
5500 5497 5494 5490 5487 5484 5481 5478 5475 5472 5470 5467 5465 5463 5460 5458 5455 5453 5451 5449 5446 5444 5442 5440 5438 5435 5434 5431 5430 5427 5425 5424 5422 5420 5418 5417 5415 5413 5412 5410 5409 5407 5406 5405 5403 5402 5401 5400 5400 5399 5399 5399 5398 5398 5399 5399 5400 5402 5403 5404 5405 5405 5405 5406 5407 5409 5410 5412 5415
5497 5494 5490 5487 5484 5481 5478 5475 5473 5470 5467 5465 5463 5460 5458 5455 5453 5450 5448 5446 5443 5441 5439 5437 5435 5432 5430 5428 5426 5424 5422 5420 5418 5416 5415 5413 5411 5410 5408 5406 5405 5403 5401 5400 5399 5398 5397 5396 5396 5395 5395 5395 5394 5394 5395 5395 5397 5398 5399 5400 5400 5400 5400 5401 5402 5404 5405 5407 5410
5495 5491 5488 5485 5482 5479 5476 5473 5470 5468 5465 5463 5460 5458 5455 5453 5450 5448 5445 5443 5440 5438 5435 5433 5431 5429 5427 5425 5422 5420 5418 5416 5415 5413 5411 5409 5407 5406 5404 5402 5400 5399 5397 5396 5395 5394 5393 5392 5391 5391 5390 5390 5390 5390 5391 5392 5393 5394 5395 5395 5395 5395 5395 5396 5397 5399 5401 5403 5405
5492 5489 5485 5482 5480 5476 5474 5471 5468 5465 5463 5460 5458 5455 5452 5450 5447 5445 5442 5440 5437 5435 5432 5430 5428 5425 5423 5421 5419 5417 5415 5413 5411 5409 5407 5405 5404 5402 5400 5398 5396 5395 5393 5391 5390 5389 5388 5388 5387 5387 5386 5386 5387 5387 5387 5388 5389 5389 5390 5390 5390 5390 5390 5391 5393 5395 5397 5398 5400
5490 5486 5483 5480 5477 5475 5472 5469 5466 5463 5460 5458 5455 5452 5450 5447 5444 5442 5439 5436 5434 5431 5429 5426 5424 5422 5419 5417 5415 5413 5411 5409 5407 5405 5403 5401 5400 5398 5396 5395 5393 5391 5389 5387 5386 5385 5384 5384 5383 5383 5383 5383 5383 5383 5383 5384 5384 5385 5385 5385 5385 5385 5386 5387 5389 5391 5392 5394 5396
5487 5484 5481 5478 5475 5473 5470 5467 5464 5461 5458 5455 5452 5450 5447 5444 5441 5439 5436 5433 5430 5428 5425 5422 5420 5418 5415 5413 5411 5409 5406 5405 5403 5401 5399 5397 5395 5394 5392 5390 5389 5387 5385 5383 5381 5380 5380 5379 5379 5378 5378 5379 5379 5379 5379 5380 5380 5380 5380 5380 5381 5381 5382 5383 5385 5386 5388 5390 5392
5485 5483 5480 5477 5474 5471 5468 5465 5462 5459 5456 5453 5450 5447 5444 5441 5438 5435 5433 5430 5427 5424 5421 5419 5416 5414 5411 5409 5407 5405 5402 5400 5398 5396 5395 5393 5391 5390 5388 5386 5384 5383 5380 5379 5377 5376 5375 5375 5375 5374 5374 5375 5375 5375 5375 5375 5375 5375 5375 5376 5376 5377 5378 5379 5381 5382 5384 5385 5387
5484 5481 5478 5475 5472 5469 5466 5463 5460 5456 5453 5450 5447 5444 5441 5438 5435 5432 5429 5426 5423 5420 5417 5415 5412 5409 5407 5404 5402 5400 5398 5395 5393 5391 5390 5388 5386 5385 5384 5382 5380 5378 5376 5374 5372 5371 5371 5370 5370 5370 5370 5370 5371 5371 5371 5371 5371 5371 5371 5372 5372 5373 5374 5375 5377 5378 5380 5381 5383
5482 5479 5476 5473 5470 5466 5464 5460 5457 5454 5451 5448 5445 5441 5438 5435 5432 5429 5426 5423 5420 5417 5414 5410 5408 5405 5402 5399 5397 5395 5393 5390 5388 5386 5385 5383 5381 5380 5379 5377 5375 5373 5371 5369 5368 5367 5366 5366 5365 5365 5366 5366 5366 5367 5367 5367 5367 5367 5368 5368 5369 5370 5370 5371 5373 5374 5376 5378 5380
5480 5477 5474 5470 5467 5464 5461 5458 5455 5452 5448 5445 5442 5439 5435 5432 5429 5425 5422 5419 5416 5413 5409 5406 5403 5400 5397 5394 5391 5389 5387 5385 5383 5381 5379 5377 5376 5375 5373 5372 5370 5368 5366 5364 5363 5362 5362 5361 5361 5361 5361 5362 5362 5362 5363 5363 5363 5363 5364 5365 5365 5366 5367 5368 5369 5370 5372 5374 5376
5478 5475 5472 5469 5465 5462 5459 5456 5452 5449 5446 5442 5439 5435 5432 5429 5425 5422 5418 5415 5412 5408 5405 5401 5398 5395 5391 5388 5385 5383 5380 5378 5376 5375 5373 5371 5370 5369 5367 5366 5365 5363 5361 5359 5358 5357 5357 5357 5356 5356 5356 5357 5358 5358 5359 5359 5359 5360 5360 5361 5361 5362 5363 5364 5365 5367 5368 5370 5372
5477 5473 5470 5467 5464 5460 5457 5454 5450 5446 5443 5440 5436 5432 5429 5425 5422 5418 5414 5411 5407 5404 5400 5396 5392 5389 5385 5382 5379 5376 5373 5371 5369 5367 5366 5365 5363 5362 5361 5360 5359 5358 5356 5354 5352 5352 5352 5352 5351 5351 5352 5353 5353 5354 5355 5355 5355 5356 5356 5357 5357 5358 5359 5360 5362 5363 5365 5367 5369
5475 5472 5469 5465 5462 5458 5455 5451 5448 5444 5440 5436 5433 5429 5425 5421 5418 5414 5410 5406 5402 5398 5394 5390 5386 5383 5379 5375 5372 5369 5366 5363 5361 5360 5358 5357 5356 5355 5354 5354 5353 5352 5350 5349 5347 5347 5347 5347 5346 5346 5347 5348 5349 5350 5350 5351 5352 5352 5353 5353 5354 5355 5356 5357 5358 5360 5361 5364 5365
5474 5470 5467 5464 5460 5456 5453 5449 5445 5441 5437 5433 5429 5425 5421 5418 5414 5410 5405 5401 5397 5393 5389 5384 5380 5376 5372 5368 5364 5361 5358 5355 5353 5351 5350 5349 5348 5347 5347 5346 5346 5345 5344 5343 5342 5341 5341 5342 5342 5342 5342 5343 5345 5345 5346 5347 5348 5348 5349 5350 5351 5352 5353 5354 5355 5356 5358 5360 5362
5473 5469 5465 5462 5458 5454 5450 5446 5442 5438 5434 5430 5426 5422 5418 5414 5410 5405 5401 5396 5392 5387 5383 5378 5374 5369 5365 5361 5357 5353 5350 5346 5344 5342 5340 5340 5339 5338 5338 5338 5338 5338 5338 5337 5336 5336 5336 5337 5337 5337 5338 5339 5340 5341 5343 5344 5344 5344 5345 5346 5347 5348 5349 5350 5351 5353 5355 5357 5359
5471 5467 5464 5460 5456 5452 5448 5444 5440 5435 5431 5427 5423 5419 5414 5410 5405 5401 5396 5391 5387 5382 5377 5372 5367 5362 5357 5353 5349 5345 5341 5338 5335 5332 5330 5329 5329 5329 5329 5330 5330 5330 5330 5330 5330 5330 5331 5332 5333 5333 5333 5334 5336 5338 5339 5340 5340 5341 5341 5342 5343 5344 5345 5347 5349 5350 5352 5354 5355
5469 5465 5461 5457 5453 5449 5445 5441 5437 5433 5429 5424 5420 5415 5411 5406 5401 5396 5391 5386 5381 5376 5370 5365 5360 5355 5350 5345 5340 5336 5332 5328 5325 5322 5320 5319 5318 5318 5319 5320 5321 5322 5323 5324 5324 5325 5326 5328 5329 5329 5329 5330 5332 5334 5335 5336 5337 5337 5338 5338 5339 5340 5342 5344 5345 5347 5349 5350 5352
5467 5463 5459 5455 5451 5447 5443 5439 5434 5430 5426 5422 5417 5412 5408 5403 5397 5392 5387 5381 5375 5370 5364 5358 5353 5347 5342 5336 5331 5327 5323 5319 5315 5312 5310 5308 5308 5308 5309 5310 5312 5314 5315 5317 5318 5320 5321 5323 5325 5325 5325 5327 5328 5330 5331 5332 5333 5334 5335 5335 5336 5337 5339 5341 5343 5344 5345 5347 5349
5465 5461 5457 5453 5449 5445 5441 5436 5432 5428 5424 5419 5414 5409 5404 5399 5393 5388 5382 5376 5370 5364 5358 5351 5345 5340 5334 5328 5322 5317 5313 5309 5306 5303 5301 5299 5298 5299 5300 5301 5304 5306 5308 5310 5312 5314 5317 5319 5321 5322 5323 5325 5325 5326 5328 5329 5330 5331 5331 5332 5333 5335 5336 5338 5340 5341 5342 5344 5346
5463 5459 5455 5451 5447 5443 5439 5435 5430 5426 5421 5416 5411 5406 5400 5395 5389 5383 5377 5370 5364 5358 5351 5345 5338 5332 5326 5320 5314 5309 5305 5301 5298 5295 5293 5292 5291 5291 5292 5294 5296 5299 5301 5304 5307 5309 5312 5315 5318 5319 5321 5323 5322 5322 5324 5325 5327 5328 5328 5329 5330 5332 5334 5335 5337 5338 5339 5341 5344
5462 5458 5454 5450 5446 5442 5437 5433 5428 5424 5419 5414 5408 5403 5397 5391 5385 5379 5372 5365 5359 5351 5345 5338 5331 5325 5319 5313 5307 5303 5299 5295 5292 5290 5288 5286 5285 5285 5286 5288 5290 5293 5296 5299 5303 5306 5309 5312 5315 5318 5320 5321 5320 5320 5321 5323 5324 5325 5326 5326 5327 5329 5331 5333 5334 5335 5337 5339 5341
5461 5457 5453 5449 5445 5440 5436 5431 5426 5421 5416 5411 5405 5399 5393 5387 5381 5374 5367 5360 5353 5345 5339 5332 5325 5319 5313 5307 5302 5298 5294 5290 5288 5285 5284 5282 5282 5282 5283 5284 5287 5290 5293 5296 5300 5303 5306 5310 5313 5317 5320 5320 5318 5317 5319 5320 5322 5323 5323 5324 5325 5326 5328 5330 5332 5333 5335 5337 5339
5460 5456 5452 5448 5443 5439 5434 5429 5424 5419 5414 5408 5402 5396 5390 5383 5377 5370 5363 5355 5348 5340 5333 5326 5320 5314 5308 5302 5298 5294 5290 5287 5285 5283 5281 5280 5279 5280 5280 5282 5285 5287 5290 5294 5297 5301 5304 5307 5311 5316 5320 5320 5317 5316 5318 5319 5320 5321 5321 5322 5322 5324 5326 5328 5330 5331 5333 5334 5336
5460 5455 5451 5446 5442 5437 5432 5427 5422 5416 5411 5405 5399 5393 5387 5380 5373 5366 5358 5350 5343 5335 5328 5321 5315 5309 5304 5299 5295 5291 5288 5285 5283 5281 5279 5278 5278 5278 5280 5281 5284 5286 5290 5293 5296 5300 5303 5306 5309 5315 5319 5318 5315 5315 5317 5318 5319 5320 5320 5320 5320 5321 5323 5326 5328 5329 5330 5332 5334
5459 5454 5450 5445 5440 5435 5430 5425 5420 5414 5409 5403 5397 5390 5384 5377 5370 5362 5355 5346 5339 5331 5324 5317 5311 5306 5301 5297 5293 5290 5287 5284 5282 5280 5279 5278 5278 5279 5280 5282 5284 5287 5290 5293 5296 5299 5302 5305 5308 5313 5316 5314 5314 5315 5316 5317 5318 5319 5319 5318 5318 5319 5321 5324 5325 5327 5328 5330 5332
5457 5453 5448 5444 5439 5434 5429 5423 5418 5412 5407 5400 5394 5388 5381 5374 5366 5359 5351 5343 5335 5328 5321 5315 5309 5304 5299 5295 5292 5289 5286 5284 5281 5280 5279 5279 5279 5280 5281 5283 5285 5288 5291 5294 5297 5299 5302 5305 5309 5312 5312 5311 5313 5314 5315 5316 5318 5318 5318 5317 5316 5317 5319 5321 5323 5325 5327 5328 5330
5456 5452 5447 5442 5437 5432 5427 5422 5416 5410 5405 5398 5392 5385 5379 5371 5364 5356 5348 5340 5332 5325 5319 5313 5307 5303 5299 5295 5291 5289 5286 5284 5282 5281 5280 5280 5280 5281 5283 5285 5287 5290 5293 5295 5298 5300 5303 5306 5309 5309 5309 5310 5312 5313 5315 5316 5317 5317 5317 5316 5315 5315 5317 5319 5321 5324 5325 5327 5329
5455 5451 5446 5441 5436 5431 5426 5420 5415 5409 5403 5397 5390 5384 5377 5370 5362 5354 5346 5338 5330 5323 5317 5311 5306 5302 5298 5295 5291 5289 5286 5285 5284 5283 5282 5282 5283 5284 5285 5287 5290 5292 5295 5297 5299 5301 5305 5307 5306 5306 5307 5309 5311 5312 5314 5315 5316 5317 5316 5314 5313 5313 5315 5318 5320 5323 5324 5325 5327
5455 5450 5445 5440 5435 5430 5425 5419 5414 5408 5402 5395 5389 5383 5376 5369 5361 5353 5344 5336 5328 5321 5315 5309 5305 5300 5297 5295 5292 5289 5287 5286 5285 5285 5285 5285 5285 5286 5288 5290 5292 5294 5296 5298 5300 5303 5305 5305 5304 5304 5306 5308 5310 5311 5312 5314 5315 5315 5315 5313 5312 5312 5313 5316 5319 5321 5322 5323 5325
5454 5450 5445 5440 5435 5430 5424 5419 5413 5407 5401 5395 5389 5382 5375 5368 5360 5352 5343 5335 5327 5320 5313 5308 5304 5300 5298 5295 5292 5290 5289 5288 5287 5287 5287 5287 5288 5289 5290 5291 5293 5295 5296 5298 5300 5304 5305 5302 5302 5303 5305 5306 5308 5310 5311 5312 5315 5315 5313 5312 5311 5311 5312 5315 5317 5319 5320 5321 5323
5454 5449 5444 5439 5434 5429 5424 5418 5413 5407 5401 5395 5389 5381 5374 5367 5359 5351 5343 5334 5326 5319 5313 5308 5305 5301 5298 5296 5293 5292 5290 5290 5289 5289 5289 5289 5290 5290 5291 5292 5293 5295 5296 5298 5302 5304 5302 5300 5300 5302 5303 5305 5306 5308 5309 5311 5313 5314 5312 5310 5310 5310 5311 5313 5315 5318 5319 5320 5321
5453 5449 5444 5439 5434 5428 5423 5418 5413 5407 5401 5395 5388 5381 5374 5366 5359 5350 5342 5334 5325 5319 5314 5309 5306 5302 5300 5297 5295 5293 5292 5292 5291 5291 5291 5291 5291 5292 5293 5293 5294 5295 5296 5298 5303 5304 5301 5299 5300 5301 5302 5304 5305 5307 5308 5310 5312 5312 5311 5309 5308 5308 5310 5311 5314 5315 5317 5319 5320
5453 5448 5443 5438 5433 5428 5423 5418 5413 5407 5401 5395 5388 5381 5374 5366 5359 5350 5341 5333 5325 5319 5314 5310 5307 5304 5301 5299 5296 5295 5294 5293 5293 5293 5293 5293 5293 5294 5295 5295 5296 5296 5297 5298 5301 5302 5301 5299 5299 5300 5302 5303 5305 5306 5307 5308 5310 5310 5310 5308 5307 5307 5308 5310 5312 5313 5315 5316 5318
5452 5447 5443 5438 5433 5428 5423 5418 5413 5407 5401 5395 5388 5381 5374 5366 5358 5350 5341 5333 5326 5320 5316 5312 5308 5305 5302 5300 5298 5297 5296 5295 5295 5295 5295 5295 5295 5296 5296 5297 5298 5297 5297 5298 5299 5300 5301 5300 5299 5300 5302 5303 5305 5305 5306 5307 5308 5309 5309 5308 5307 5306 5307 5308 5310 5312 5313 5314 5316
5452 5447 5442 5438 5433 5428 5424 5418 5413 5407 5401 5395 5388 5381 5374 5366 5358 5350 5342 5334 5328 5322 5318 5314 5310 5307 5304 5301 5300 5298 5297 5297 5297 5297 5297 5297 5297 5297 5298 5298 5298 5298 5298 5298 5298 5299 5300 5300 5300 5300 5302 5303 5304 5305 5306 5307 5307 5307 5307 5306 5306 5306 5306 5307 5309 5310 5312 5313 5314
5452 5447 5442 5438 5433 5429 5424 5419 5413 5408 5402 5395 5388 5381 5374 5367 5359 5351 5344 5337 5330 5325 5320 5316 5312 5309 5305 5303 5301 5300 5299 5298 5298 5298 5298 5298 5298 5298 5299 5299 5299 5299 5299 5299 5298 5298 5299 5300 5300 5301 5302 5303 5304 5305 5305 5306 5307 5307 5306 5306 5305 5305 5306 5307 5308 5310 5311 5313 5314
5452 5447 5443 5438 5433 5429 5424 5419 5413 5408 5402 5395 5389 5382 5375 5368 5361 5354 5347 5340 5334 5329 5323 5319 5314 5310 5307 5305 5303 5301 5300 5300 5299 5299 5299 5300 5300 5299 5300 5300 5300 5300 5300 5300 5300 5300 5300 5300 5301 5302 5303 5304 5304 5305 5305 5305 5306 5306 5306 5306 5306 5306 5306 5307 5308 5310 5311 5313 5314